Location: Maddington
(51.2000°N, 1.9167°W)
Time: 22:08:03
(UTC+00:00)

NOSS 3-2 (A) - Pass Details

Date: 26 January 2021
Orbit: 783 x 1425 km, 63.4° (Epoch: 07 March)

Event Time Altitude Azimuth Distance (km) Brightness Sun altitude
Exits shadow 05:43:25 - 208° (SSW) 2,984 5.8 -20.1°
Reaches altitude 10° 05:44:48 10° 206° (SSW) 2,462 5.4 -19.9°
Maximum altitude 05:50:24 63° 126° (SE) 1,025 3.8 -19.0°
Drops below altitude 10° 05:56:53 10° 48° (NE) 2,847 6.5 -18.0°
Sets 05:59:45 0° 45° (NE) 3,907 7.2 -17.6°
